Kokomo, IN

3:39 PM EDT on July 25, 2017 (GMT -0400)
Kokomo Municipal

Weather History for KOKK - October, 2012

Change the Weather History Date:

Friday, October 19, 2012

  Actual Average (KGUS) Record (KGUS)
Temperature  
Mean Temperature 46 °F -  
Max Temperature 48 °F 59 °F 71 °F (2000)
Min Temperature 44 °F 41 °F 30 °F (1996)
Degree Days  
Heating Degree Days 19    
Moisture  
Dew Point 44 °F    
Average Humidity 88    
Maximum Humidity 93    
Minimum Humidity 81    
Precipitation  
Precipitation 0.09 in - - ()
Sea Level Pressure  
Sea Level Pressure 29.56 in    
Wind  
Wind Speed 11 mph (SW)    
Max Wind Speed 16 mph    
Max Gust Speed 21 mph    
Visibility 10 miles    
Events      
Averages and records for this station are not official NWS values.
T = Trace of Precipitation, MM = Missing Value Source: NWS Daily Summary

Daily Weather History Graph

Daily Weather History Graph

Search for Another Location

Airport or City:

Trip Planner

Search our weather history database for the weather conditions in past years. The results will help you decide how hot, cold, wet, or windy it might be!

Date:

Astronomy

Oct. 19, 2012 Rise Set
Actual Time 7:00 AM CDT 5:57 PM CDT
Civil Twilight 6:32 AM CDT 6:25 PM CDT
Nautical Twilight 6:00 AM CDT 6:56 PM CDT
Astronomical Twilight 5:29 AM CDT 7:28 PM CDT
Moon 11:43 AM CDT (10/19) 9:34 PM CDT (10/19)
Length of Visible Light 11h 52m
Length of Day
10h 57m
Waxing Crescent, 24% of the Moon is Illuminated
Oct 19
Waxing Crescent
Oct 21
First Quarter
Oct 29
Full
Nov 6
Last Quarter
Nov 13
New

Hourly Weather History & Observations

Time (CDT) Temp. Windchill Dew Point Humidity Pressure Visibility Wind Dir Wind Speed Gust Speed Precip Events Conditions
12:15 AM 46.4 °F 42.4 °F 42.8 °F 87% 29.58 in 10.0 mi ESE 8.1 mph - N/A   Scattered Clouds
12:35 AM 46.4 °F 42.9 °F 41.0 °F 81% 29.58 in 10.0 mi SE 6.9 mph - N/A   Mostly Cloudy
12:55 AM 46.4 °F 41.9 °F 41.0 °F 81% 29.57 in 10.0 mi SE 9.2 mph - N/A   Overcast
1:15 AM 46.4 °F 40.7 °F 42.8 °F 87% 29.56 in 10.0 mi ESE 12.7 mph - N/A   Overcast
1:55 AM 46.4 °F 41.5 °F 42.8 °F 87% 29.55 in 10.0 mi SE 10.4 mph - N/A   Overcast
2:15 AM 46.4 °F 41.5 °F 42.8 °F 87% 29.54 in 10.0 mi SE 10.4 mph - N/A   Overcast
2:35 AM 46.4 °F 41.5 °F 42.8 °F 87% 29.53 in 10.0 mi SE 10.4 mph - N/A   Overcast
2:55 AM 46.4 °F 41.9 °F 42.8 °F 87% 29.52 in 10.0 mi SE 9.2 mph - N/A   Overcast
3:15 AM 46.4 °F 41.9 °F 42.8 °F 87% 29.52 in 10.0 mi SSE 9.2 mph 18.4 mph N/A   Overcast
3:35 AM 46.4 °F 41.5 °F 42.8 °F 87% 29.52 in 10.0 mi South 10.4 mph - N/A   Overcast
3:55 AM 46.4 °F 42.4 °F 42.8 °F 87% 29.52 in 10.0 mi South 8.1 mph - N/A   Overcast
4:15 AM 46.4 °F 41.9 °F 42.8 °F 87% 29.52 in 10.0 mi South 9.2 mph - N/A   Overcast
4:35 AM 46.4 °F 41.9 °F 42.8 °F 87% 29.51 in 10.0 mi South 9.2 mph - N/A   Overcast
4:55 AM 46.4 °F 41.5 °F 42.8 °F 87% 29.52 in 10.0 mi SSW 10.4 mph - 0.01 in   Overcast
5:15 AM 46.4 °F 40.7 °F 42.8 °F 87% 29.52 in 10.0 mi SW 12.7 mph - N/A   Overcast
5:35 AM 46.4 °F 40.1 °F 42.8 °F 87% 29.53 in 9.0 mi SW 15.0 mph - 0.02 in   Overcast
5:55 AM 44.6 °F 40.2 °F 42.8 °F 93% 29.52 in 10.0 mi SSW 8.1 mph - 0.02 in   Mostly Cloudy
6:15 AM 44.6 °F 40.2 °F 42.8 °F 93% 29.52 in 10.0 mi SSW 8.1 mph - N/A   Overcast
6:35 AM 44.6 °F 41.4 °F 42.8 °F 93% 29.52 in 10.0 mi SW 5.8 mph - N/A   Overcast
6:55 AM 44.6 °F 40.2 °F 42.8 °F 93% 29.52 in 10.0 mi South 8.1 mph - N/A   Mostly Cloudy
7:15 AM 44.6 °F 39.7 °F 42.8 °F 93% 29.52 in 10.0 mi SSW 9.2 mph 16.1 mph N/A   Overcast
7:35 AM 46.4 °F 40.1 °F 42.8 °F 87% 29.52 in 10.0 mi SSW 15.0 mph 19.6 mph N/A   Overcast
7:55 AM 46.4 °F 41.9 °F 42.8 °F 87% 29.52 in 10.0 mi SSW 9.2 mph - N/A   Overcast
8:15 AM 46.4 °F 41.9 °F 42.8 °F 87% 29.52 in 10.0 mi SSW 9.2 mph - N/A   Overcast
8:35 AM 46.4 °F 41.5 °F 42.8 °F 87% 29.52 in 10.0 mi SSW 10.4 mph - N/A   Overcast
8:55 AM 46.4 °F 40.7 °F 42.8 °F 87% 29.52 in 10.0 mi SSW 12.7 mph - N/A   Overcast
9:15 AM 48.2 °F - 42.8 °F 82% 29.52 in 10.0 mi SSW 9.2 mph - N/A   Overcast
9:35 AM 48.2 °F - 44.6 °F 87% 29.53 in 10.0 mi SW 11.5 mph - N/A   Overcast
9:55 AM 48.2 °F - 42.8 °F 82% 29.53 in 10.0 mi SW 12.7 mph - N/A   Overcast
10:15 AM 48.2 °F - 42.8 °F 82% 29.53 in 10.0 mi SW 11.5 mph - N/A   Overcast
10:35 AM 48.2 °F - 42.8 °F 82% 29.53 in 9.0 mi SW 13.8 mph 18.4 mph N/A   Overcast
10:55 AM 48.2 °F - 44.6 °F 87% 29.54 in 9.0 mi SW 16.1 mph 20.7 mph N/A   Overcast
11:15 AM 48.2 °F - 44.6 °F 87% 29.53 in 5.0 mi SW 11.5 mph - N/A   Mostly Cloudy
11:35 AM 48.2 °F - 42.8 °F 82% 29.53 in 10.0 mi SSW 12.7 mph 20.7 mph N/A   Mostly Cloudy
11:55 AM 48.2 °F - 44.6 °F 87% 29.53 in 10.0 mi SW 11.5 mph 19.6 mph N/A   Overcast
12:15 PM 48.2 °F - 44.6 °F 87% 29.53 in 10.0 mi SW 12.7 mph - 0.01 in   Overcast
12:35 PM 48.2 °F - 44.6 °F 87% 29.53 in 10.0 mi SW 9.2 mph - 0.01 in   Overcast
12:55 PM 46.4 °F 39.8 °F 44.6 °F 93% 29.53 in 9.0 mi SW 16.1 mph 20.7 mph 0.03 in   Overcast
1:15 PM 46.4 °F 40.7 °F 42.8 °F 87% 29.54 in 10.0 mi SW 12.7 mph 19.6 mph N/A   Mostly Cloudy
1:35 PM 46.4 °F 40.1 °F 44.6 °F 93% 29.54 in 10.0 mi WSW 15.0 mph - 0.01 in   Overcast
1:55 PM 46.4 °F 40.7 °F 44.6 °F 93% 29.54 in 10.0 mi SW 12.7 mph - 0.02 in   Mostly Cloudy
2:15 PM 48.2 °F - 44.6 °F 87% 29.54 in 10.0 mi SW 10.4 mph - N/A   Mostly Cloudy
2:35 PM 46.4 °F 39.8 °F 44.6 °F 93% 29.54 in 3.0 mi SW 16.1 mph 20.7 mph N/A   Overcast
2:55 PM 48.2 °F - 44.6 °F 87% 29.55 in 6.0 mi SW 12.7 mph - N/A   Overcast
3:15 PM 48.2 °F - 46.4 °F 93% 29.55 in 10.0 mi WSW 13.8 mph - N/A   Overcast
3:35 PM 48.2 °F - 44.6 °F 87% 29.56 in 10.0 mi WSW 13.8 mph - N/A   Overcast
3:55 PM 48.2 °F - 44.6 °F 87% 29.56 in 10.0 mi WSW 15.0 mph - N/A   Overcast
4:15 PM 48.2 °F - 44.6 °F 87% 29.57 in 10.0 mi WSW 16.1 mph - N/A   Overcast
4:35 PM 48.2 °F - 44.6 °F 87% 29.57 in 8.0 mi WSW 13.8 mph 17.3 mph N/A   Mostly Cloudy
4:55 PM 48.2 °F - 44.6 °F 87% 29.58 in 10.0 mi WSW 13.8 mph - N/A   Overcast
5:15 PM 48.2 °F - 44.6 °F 87% 29.58 in 10.0 mi WSW 11.5 mph - N/A   Mostly Cloudy
5:35 PM 48.2 °F - 44.6 °F 87% 29.59 in 10.0 mi WSW 16.1 mph 20.7 mph N/A   Mostly Cloudy
5:55 PM 48.2 °F - 44.6 °F 87% 29.60 in 6.0 mi WSW 12.7 mph - 0.01 in   Mostly Cloudy
6:15 PM 46.4 °F 41.5 °F 44.6 °F 93% 29.60 in 10.0 mi WSW 10.4 mph - N/A   Overcast
6:35 PM 46.4 °F 41.1 °F 44.6 °F 93% 29.61 in 8.0 mi WSW 11.5 mph - N/A   Overcast
6:55 PM 46.4 °F 40.7 °F 44.6 °F 93% 29.61 in 10.0 mi WSW 12.7 mph - N/A   Mostly Cloudy
7:15 PM 46.4 °F 40.7 °F 44.6 °F 93% 29.61 in 9.0 mi WSW 12.7 mph 19.6 mph N/A   Overcast
7:35 PM 46.4 °F 40.1 °F 44.6 °F 93% 29.62 in 10.0 mi WSW 15.0 mph - N/A   Overcast
7:55 PM 46.4 °F 41.1 °F 44.6 °F 93% 29.62 in 10.0 mi West 11.5 mph - N/A   Overcast
8:15 PM 46.4 °F 40.7 °F 44.6 °F 93% 29.63 in 10.0 mi West 12.7 mph - N/A   Overcast
8:35 PM 46.4 °F 40.4 °F 44.6 °F 93% 29.63 in 10.0 mi WSW 13.8 mph - N/A   Overcast
8:55 PM 46.4 °F 40.4 °F 42.8 °F 87% 29.63 in 10.0 mi WSW 13.8 mph - N/A   Mostly Cloudy
9:15 PM 46.4 °F 41.1 °F 42.8 °F 87% 29.64 in 10.0 mi WSW 11.5 mph - N/A   Mostly Cloudy
9:35 PM 46.4 °F 40.7 °F 42.8 °F 87% 29.64 in 10.0 mi West 12.7 mph - N/A   Mostly Cloudy
9:55 PM 46.4 °F 41.1 °F 42.8 °F 87% 29.65 in 10.0 mi WSW 11.5 mph - N/A   Overcast
10:15 PM 46.4 °F 40.7 °F 42.8 °F 87% 29.65 in 10.0 mi West 12.7 mph - N/A   Overcast
10:35 PM 46.4 °F 41.1 °F 42.8 °F 87% 29.65 in 10.0 mi West 11.5 mph - N/A   Overcast
10:55 PM 46.4 °F 40.7 °F 42.8 °F 87% 29.66 in 10.0 mi WSW 12.7 mph - N/A   Overcast
11:15 PM 46.4 °F 41.1 °F 42.8 °F 87% 29.66 in 10.0 mi West 11.5 mph - N/A   Overcast
11:35 PM 46.4 °F 40.7 °F 42.8 °F 87% 29.66 in 10.0 mi WSW 12.7 mph - N/A   Overcast
11:55 PM 46.4 °F 41.1 °F 42.8 °F 87% 29.66 in 10.0 mi WSW 11.5 mph - N/A   Overcast